Regional Weather Roundup
Issued by NWS Wakefield, VA

Home | Current Version | Previous Version | Graphics & Text | Print | Product List | Glossary Off
Versions: 1 2 3 4 5 6 7 8 9 10 11 12 13 14 15 16 17 18 19 20 21 22 23 24 25 26 27

000
ASUS41 KAKQ 032215
RWRAKQ

REGIONAL WEATHER ROUNDUP
NATIONAL WEATHER SERVICE WAKEFIELD VA
600 PM EDT TUE MAY 03 2016

Note: "fair" indicates few or no clouds below 12,000 feet with no
significant weather and/or obstructions to visibility. * = Denotes
station may not report precipitation (e.g., rain,snow,etc.),
thunder or fog.

VAZ042-051-052>054-056-032300-
NORTHERN VIRGINIA

CITY           SKY/WX    TMP DP  RH WIND       PRES   REMARKS
WASH NATIONAL  LGT RAIN  66  61  84 E7        29.75F
DULLES         PTSUNNY   66  58  75 E13       29.74S
FORT BELVOIR   FAIR      64  61  88 E6        29.73F
QUANTICO       RAIN      65  61  87 E5        29.74S FOG
FREDERICKSBRG* NOT AVBL
STAFFORD*      CLOUDY    62  59  90 E5        29.77F
WARRENTON      FAIR      68  58  71 NE5       29.73R
CULPEPER*      FAIR      66  62  87 CALM      29.75R
MANASSAS*      SUNNY     66  61  82 NE3       29.74F
LEESBURG*      PTSUNNY   66  63  88 NE5       29.76R
WINCHESTER     CLOUDY    64  59  82 E7        29.74F
FRONT ROYAL*   CLOUDY    64  57  77 NE5       29.73R
LURAY*         FAIR      64  63  94 W5        29.73S
$$

VAZ048-049-060>072-079>083-032300-
CENTRAL AND SOUTH CENTRAL VIRGINIA

CITY           SKY/WX    TMP DP  RH WIND       PRES   REMARKS
RICHMOND       PTSUNNY   73  62  68 S6        29.71R
CHESTERFIELD*  MOCLDY    73  54  49 SW5       29.72R
PETERSBURG*    PTSUNNY   77  62  59 SW3       29.73R
HANOVER        TSTM      59  56  89 VRB7      29.77R FOG
TAPPAHANNOCK*  TSTM      70  62  76 W18G30    29.76R
QUINTON*       FAIR      75  62  64 S7        29.70S
CHARLOTTSVILLE FAIR      68  58  70 NE10      29.73R
GORDONSVILLE*  MOCLDY    65  61  87 NE6       29.73F
ORANGE*        FAIR      64  61  88 NE3       29.76S
LOUISA*        PTSUNNY   64  63  94 E5        29.72F
BUMPASS*       CLOUDY    58  57  97 NE3       29.73F
FARMVILLE*     FAIR      67  64  91 CALM      29.70F
CREWE*         CLOUDY    64  63  99 NW5G23    29.74R VSB 3/4
FORT PICKETT*  NOT AVBL
CHASE CITY*    CLOUDY    64  62  94 CALM      29.75R
CLARKSVILLE*   MOCLDY    73  63  68 N10G17    29.73R
SOUTH HILL*    FAIR      73  64  73 S6        29.77S
LAWRENCEVILLE* FAIR      75  64  68 SW5       29.72R
EMPORIA*       FAIR      73  63  68 S3        29.73S
$$

VAZ088>098-032300-
SOUTHEAST VIRGINIA

CITY           SKY/WX    TMP DP  RH WIND       PRES   REMARKS
NORFOLK        FAIR      74  64  71 S7        29.72S
VIRGINIA BEACH FAIR      74  66  76 SE8       29.72S
NORFOLK NAVAL  PTSUNNY   75  64  68 SW5       29.73F
WEST POINT*    FAIR      72  63  72 E9        29.72F
SALUDA*        MOCLDY    67  63  87 SE8       29.72F
NEWPORT NEWS   FAIR      74  64  71 SW6       29.72R
LANGLEY AFB    FAIR      76  66  71 S8        29.72S
FORT EUSTIS    FAIR      75  63  67 S7        29.70S
WILLIAMSBURG*  FAIR      75  66  73 SE5       29.72S
HR EXEC AP*    FAIR      75  66  73 S3        29.74S
FRANKLIN*      PTSUNNY   76  64  64 SW7       29.72S
US460-WAKEFLD  FAIR      76  63  64 SW6       29.71S
$$

VAZ020-022-025-037-045-032300-
WEST CENTRAL AND SOUTHWEST VIRGINIA

CITY           SKY/WX    TMP DP  RH WIND       PRES   REMARKS
STAUNTON*      FAIR      68  61  80 E3        29.75S
WAYNESBORO*    MOCLDY    71  57  61 CALM      29.73S
HOT SPRINGS VA PTSUNNY   61  47  59 W18G28    29.79S
LYNCHBURG      FAIR      71  59  65 S8        29.74S
DANVILLE       FAIR      70  57  63 NE10      29.73R
SOUTH BOSTON*  CLOUDY    69  62  79 CALM      29.74S
MARTINSVILLE   LGT RAIN  63  61  92 CALM      29.76R
ROANOKE        PTSUNNY   73  52  47 W13       29.75R
BLACKSBURG     PTSUNNY   67  52  59 NW12G20   29.82R
DUBLIN*        FAIR      68  51  55 NW16G22   29.81S
MARION*        PTSUNNY   65  51  60 W12       29.84S
HILLSVILLE*    PTSUNNY   66  53  61 NW15      29.80R
RICHLANDS*     CLOUDY    62  53  71 NW8       29.85R
WISE*          CLOUDY    59  43  55 NW10      29.89R
ABINGDON*      PTSUNNY   67  49  53 W8        29.83S
$$

MDZ021>025-VAZ099-100-032300-
SOUTHERN MARYLAND AND THE DELMARVA PENINSULA

CITY           SKY/WX    TMP DP  RH WIND       PRES   REMARKS
PATUXENT RIVER TSTM      61  57  87 N13       29.76  FOG
BAY BRIDGE APT NOT AVBL
LEONARDTOWN    CLOUDY    61  55  82 NE3       29.78R
DOVER          CLOUDY    57  57 100 NE8       29.78S FOG
GEORGETOWN     CLOUDY    58  57  97 NE10      29.79R FOG
EASTON         PTSUNNY  N/A N/A N/A NE9       29.80S
CAMBRIDGE      CLOUDY    63  57  82 NE7       29.76R
SALISBURY      CLOUDY    63  59  87 E13       29.76R
OCEAN CITY     CLOUDY    55  53  93 NE12      29.78R
WALLOPS ISLAND CLOUDY    60  58  92 E16       29.76R
ACCOMACK*      CLOUDY    70  52  52 CALM      29.74R
$$

NCZ012>017-030>032-032300-
NORTH CENTRAL AND EASTERN NORTH CAROLINA

CITY           SKY/WX    TMP DP  RH WIND       PRES   REMARKS
ROANOKE RAPIDS FAIR      77  64  65 S6        29.71F
RALEIGH        HAIL      68  64  88 SW7       29.74S FOG
ELIZABETH CITY PTSUNNY   72  65  78 S12       29.75R
AHOSKIE*       MOSUNNY   74  66  75 S3        29.73F
EDENTON*       SUNNY     75  67  77 S10       29.75S
CURRITUCK*     NOT AVBL
KILL DEVIL HLS SUNNY     76  65  67 S7        29.75S
MANTEO         NOT AVBL
CAPE HATTERAS  MOSUNNY   70  66  87 SW10      29.80S
TARBORO*       MOCLDY    78  67  68 S7        29.73F
GOLDSBORO      MOSUNNY   80  70  71 S9        29.72S
WASHINGTON     CLOUDY    76  65  67 SW8       29.74F
GREENVILLE     CLOUDY    77  66  69 SW6       29.77S
NEW BERN       CLOUDY    74  66  76 S10       29.77F
WILMINGTON     CLOUDY    74  68  81 S5        29.77S
$$

VAZ048-032300-
ELSEWHERE

CITY           SKY/WX    TMP DP  RH WIND       PRES   REMARKS
HARRISBURG PA  PTSUNNY   63  55  75 SE8       29.76F
BALTIMORE      LGT RAIN  61  57  87 E13       29.77R
ANNAPOLIS      CLOUDY    62  56  80 N6        29.78R
ANDREWS AFB    LGT RAIN  63  59  86 E12       29.75R FOG
PHILADELPHIA   CLOUDY    57  51  80 NE7       29.81R
HENDERSON NC   PTSUNNY   76  64  66 CALM      29.72S
GREENSBORO     PTSUNNY   73  60  63 W7        29.73S
ROCKY MOUNT    SUNNY     76  66  71 SW8       29.72F
$$

VAZ100-032300-
MARINE

STATION/POSITION TIME  TEMP    WIND        PRES    WAVE   SWELL
                       AIR SEA DIR/SP/G            HT/PER HT/PER
                 (UTC) (F)     (DEG/KT/KT) (MB)    (FT/S) (FT/S)
BRANDYWINE LGT   2100   55      40/  7/  8 1008.5R
CAPE MAY NJ      2100   56 59   80/  3/  5 1008.0S
LEWES DE         2100   54 57   70/  9/ 11 1008.1S
15NM E FENWICK I 2150   52 53              1008.1R   3/ 6
OCEAN-CITY-INLET 2100   54 55   40/  5/  9 1007.3F
WACHAPREAGUE VA  2100   69 65  170/  5/  7 1006.3F
THOMAS POINT MD  2200   61 59   40/ 11/ 11 1009.5R
GOOSES REEF MD   2200   62 60   40/ 10/ 12 1008.8R   1/ 2
COVE POINT MD    2100   61      30/ 11/ 14 1007.7F
SOLOMONS ISLAND  2100   63 62   30/ 13/ 18   N/A
BISHOPS HEAD MD  2100   68 64   10/  6/  9 1006.4R
PINEY POINT MD   2100           90/  9/ 10   N/A
POTOMAC MD       2200   63 60   20/ 12/ 14 1006.0S
CAMBRIDGE MD     2100   65 61   10/  8/ 10 1006.7F
LEWISETTA VA     2100   64 63  120/  4/  6 1006.5F
RAPPAHANNOCK LGT 2100          130/  4/  4 1007.1F
STINGRAY PT      2200   66 65  120/  6/  6 1007.0S   0
YORK RVR RNG VA  2100   69     130/  5/  6 1005.6F
YORKTOWN VA      2100   70 63   80/  4/  7 1005.7F
JAMESTOWN VA     2200   73 69  120/  4/  6   N/A     0
DOMINION TERM VA 2100   69     190/  6/  6 1006.4F
KIPTOPEKE VA     2100      63  160/  4/  4   N/A
CHES BAY BRIDGE  2100   69 62  100/  4/  5 1006.2F
CAPE HENRY VA    2100   72     180/  2/  6   N/A
CHESAPEAKE LGHT  2100   63     170/ 14/ 15 1007.7F
WILLOUBY STN VA  2100   71     190/  3/  4 1007.4F
CAPE HENRY BUOY  2112      61                N/A     3/ 6
CAPE CHARLES BUO 2126      59                N/A     2/ 9   2/ 9
OFFSHORE WE BUOY 2121      57                N/A     4/ 7   3/ 7
64NM E OF VA BCH 2150   58 55  170/ 10/ 12 1007.6F   5/ 7   5/ 7
44100 DUCK FRF   2124      62                N/A     3/ 7
44056 DUCK FRF   2111      59                N/A     2/ 9
OREGON INLET NC  2100   70 71  200/ 16/ 19 1008.2F
HATTERAS NC      2100   71 69  210/ 12/ 15 1008.7R
DIAMOND SHLS NC  2150   73 72  200/ 19/ 23 1008.5F   4/ 8   2/ 8
CAPE LOOKOUT NC  2200   69     170/ 11/ 12 1008.4F
$$




USA.gov is the U.S. government's official web portal to all federal, state and local government web resources and services.